TimeCST,TemperatureF,Dew PointF,Humidity,Sea Level PressureIn,VisibilityMPH,Wind Direction,Wind SpeedMPH,Gust SpeedMPH,PrecipitationIn,Events,Conditions,WindDirDegrees,DateUTC
12:52 AM,39.9,28.9,65,29.96,10.0,NE,4.6,-,N/A,,Clear,50,2012-11-26 06:52:00
1:52 AM,41.0,28.9,62,29.96,10.0,ENE,5.8,-,N/A,,Clear,60,2012-11-26 07:52:00
2:52 AM,37.9,28.9,70,29.96,10.0,East,3.5,-,N/A,,Clear,90,2012-11-26 08:52:00
3:52 AM,39.0,30.0,70,29.96,10.0,ENE,4.6,-,N/A,,Clear,70,2012-11-26 09:52:00
4:52 AM,37.9,30.0,73,29.97,10.0,NE,8.1,-,N/A,,Mostly Cloudy,40,2012-11-26 10:52:00
5:52 AM,37.0,28.9,73,29.99,10.0,NE,10.4,-,N/A,,Scattered Clouds,50,2012-11-26 11:52:00
6:52 AM,37.9,30.0,73,30.02,10.0,NE,8.1,-,N/A,,Overcast,40,2012-11-26 12:52:00
7:52 AM,37.9,30.0,73,30.04,10.0,NE,9.2,-,N/A,,Overcast,50,2012-11-26 13:52:00
8:52 AM,39.0,30.9,73,30.08,10.0,NE,12.7,-,N/A,,Overcast,50,2012-11-26 14:52:00
9:52 AM,39.9,30.9,70,30.09,10.0,NE,16.1,-,N/A,,Overcast,50,2012-11-26 15:52:00
10:52 AM,39.9,30.9,70,30.10,10.0,NE,13.8,-,N/A,,Overcast,50,2012-11-26 16:52:00
11:52 AM,41.0,32.0,70,30.10,10.0,NNE,15.0,-,N/A,,Overcast,20,2012-11-26 17:52:00
12:52 PM,42.1,33.1,70,30.12,4.0,NNE,10.4,-,0.00,Rain,Light Rain,20,2012-11-26 18:52:00
1:52 PM,41.0,32.0,70,30.13,4.0,NNE,13.8,-,0.01,,Haze,20,2012-11-26 19:52:00
2:52 PM,42.1,33.1,70,30.14,10.0,NNE,16.1,-,0.01,Rain,Light Rain,30,2012-11-26 20:52:00
3:52 PM,41.0,28.9,62,30.18,10.0,NNE,16.1,27.6,0.01,Rain,Light Rain,30,2012-11-26 21:52:00
4:52 PM,41.0,27.0,57,30.23,10.0,NNE,20.7,28.8,0.00,,Overcast,20,2012-11-26 22:52:00
5:52 PM,39.9,27.0,60,30.28,10.0,NNE,16.1,-,N/A,,Overcast,30,2012-11-26 23:52:00
6:52 PM,39.0,27.0,62,30.30,10.0,NNE,13.8,-,N/A,,Mostly Cloudy,20,2012-11-27 00:52:00
7:52 PM,37.0,27.0,67,30.33,10.0,NNE,10.4,-,N/A,,Clear,20,2012-11-27 01:52:00
8:52 PM,34.0,26.1,73,30.35,10.0,North,6.9,-,N/A,,Clear,10,2012-11-27 02:52:00
9:52 PM,32.0,26.1,79,30.38,10.0,North,9.2,-,N/A,,Clear,350,2012-11-27 03:52:00
10:52 PM,30.9,25.0,79,30.39,10.0,North,8.1,-,N/A,,Clear,10,2012-11-27 04:52:00
11:52 PM,28.9,25.0,85,30.40,10.0,North,8.1,-,N/A,,Clear,10,2012-11-27 05:52:00